ARG2442 SARI-SBPA

Flight info

Callsign ARG2442
Flight time 0h 40m
Altitude 37000
Route KOLNA UL216 NOBEL
Aircraft B737/M-SDE2E3FGHIRWXY/LB1

Departure

Time 2026-04-24 20:03
Airport Cataratas Del Iguazú International Airport (SARI)

Arrival

Time 2026-04-24 20:44
Airport Porto Alegre-Salgado Filho International Airport (SBPA)
Time Latitude Longitude Altitude Speed Heading
2026-04-24 18:54 -25.73238 -54.47641 926 ft 0 kts 26°
2026-04-24 19:57 -25.73239 -54.47641 926 ft 2 kts 26°
2026-04-24 19:58 -25.73263 -54.47651 926 ft 4 kts
2026-04-24 19:58 -25.73287 -54.47648 926 ft 4 kts 319°
2026-04-24 19:58 -25.73296 -54.47635 926 ft 1 kts 296°
2026-04-24 19:58 -25.73297 -54.47634 926 ft 0 kts 296°
2026-04-24 20:00 -25.73294 -54.47639 926 ft 4 kts 296°
2026-04-24 20:00 -25.73271 -54.47694 929 ft 12 kts 296°
2026-04-24 20:00 -25.73229 -54.47805 926 ft 19 kts 282°
2026-04-24 20:01 -25.73227 -54.47976 930 ft 26 kts 263°
2026-04-24 20:01 -25.73248 -54.48195 927 ft 31 kts 264°
2026-04-24 20:01 -25.73249 -54.48451 926 ft 36 kts 287°
2026-04-24 20:01 -25.73136 -54.48720 927 ft 37 kts 306°
2026-04-24 20:02 -25.73098 -54.48816 925 ft 7 kts 228°
2026-04-24 20:02 -25.73122 -54.48811 925 ft 4 kts 126°
2026-04-24 20:02 -25.73171 -54.48685 926 ft 50 kts 115°
2026-04-24 20:02 -25.73436 -54.48046 930 ft 131 kts 115°
2026-04-24 20:03 -25.73915 -54.46912 1133 ft 180 kts 114°
2026-04-24 20:03 -25.74481 -54.45697 2265 ft 173 kts 119°
2026-04-24 20:03 -25.75140 -54.44624 3375 ft 166 kts 128°
2026-04-24 20:03 -25.75933 -54.43630 4034 ft 186 kts 138°
2026-04-24 20:04 -25.77087 -54.42706 4361 ft 221 kts 146°
2026-04-24 20:04 -25.78446 -54.41669 4669 ft 251 kts 145°
2026-04-24 20:04 -25.79890 -54.40525 5282 ft 266 kts 144°
2026-04-24 20:04 -25.81443 -54.39250 5873 ft 285 kts 143°
2026-04-24 20:05 -25.83039 -54.37902 6791 ft 291 kts 142°
2026-04-24 20:05 -25.84648 -54.36511 7805 ft 294 kts 142°
2026-04-24 20:05 -25.86267 -54.35090 8724 ft 300 kts 142°
2026-04-24 20:05 -25.87912 -54.33632 9651 ft 305 kts 141°
2026-04-24 20:06 -25.89580 -54.32144 10523 ft 312 kts 142°
2026-04-24 20:06 -25.91343 -54.30565 10846 ft 338 kts 142°
2026-04-24 20:06 -25.93210 -54.28887 11483 ft 350 kts 142°
2026-04-24 20:06 -25.95088 -54.27194 12363 ft 353 kts 142°
2026-04-24 20:07 -25.96379 -54.26029 12973 ft 355 kts 143°
2026-04-24 20:07 -25.98952 -54.23703 14048 ft 363 kts 143°
2026-04-24 20:07 -26.00931 -54.21914 14825 ft 370 kts 143°
2026-04-24 20:07 -26.02946 -54.20092 15595 ft 376 kts 143°
2026-04-24 20:08 -26.04992 -54.18240 16363 ft 382 kts 143°
2026-04-24 20:08 -26.07068 -54.16360 17121 ft 387 kts 143°
2026-04-24 20:08 -26.09171 -54.14453 17836 ft 392 kts 143°
2026-04-24 20:08 -26.11307 -54.12519 18474 ft 400 kts 144°
2026-04-24 20:09 -26.13474 -54.10555 19147 ft 404 kts 144°
2026-04-24 20:09 -26.15733 -54.08656 19838 ft 407 kts 149°
2026-04-24 20:09 -26.18059 -54.06911 20485 ft 410 kts 150°
2026-04-24 20:09 -26.20475 -54.05173 21050 ft 415 kts 151°
2026-04-24 20:10 -26.22924 -54.03427 21640 ft 419 kts 151°
2026-04-24 20:10 -26.25388 -54.01661 22232 ft 423 kts 152°
2026-04-24 20:10 -26.27884 -53.99859 22689 ft 431 kts 151°
2026-04-24 20:10 -26.30381 -53.98043 23228 ft 434 kts 151°
2026-04-24 20:11 -26.32910 -53.96193 23786 ft 436 kts 151°
2026-04-24 20:11 -26.35465 -53.94320 24220 ft 442 kts 151°
2026-04-24 20:11 -26.38050 -53.92422 24653 ft 446 kts 151°
2026-04-24 20:11 -26.40655 -53.90507 25146 ft 449 kts 152°
2026-04-24 20:12 -26.43267 -53.88585 25665 ft 450 kts 152°
2026-04-24 20:12 -26.45892 -53.86654 26133 ft 453 kts 152°
2026-04-24 20:12 -26.48521 -53.84720 26570 ft 457 kts 152°
2026-04-24 20:12 -26.51194 -53.82752 27003 ft 460 kts 152°
2026-04-24 20:13 -26.53852 -53.80794 27439 ft 463 kts 152°
2026-04-24 20:13 -26.56550 -53.78805 27866 ft 466 kts 152°
2026-04-24 20:13 -26.59262 -53.76805 28294 ft 468 kts 152°
2026-04-24 20:13 -26.61993 -53.74790 28676 ft 472 kts 152°
2026-04-24 20:14 -26.64739 -53.72764 29070 ft 474 kts 152°
2026-04-24 20:14 -26.67497 -53.70722 29439 ft 477 kts 152°
2026-04-24 20:14 -26.70282 -53.68658 29785 ft 480 kts 152°
2026-04-24 20:14 -26.73076 -53.66587 30115 ft 483 kts 152°
2026-04-24 20:15 -26.75883 -53.64504 30485 ft 485 kts 152°
2026-04-24 20:15 -26.78697 -53.62416 30849 ft 487 kts 153°
2026-04-24 20:15 -26.81531 -53.60321 31145 ft 491 kts 153°
2026-04-24 20:15 -26.84378 -53.58219 31469 ft 493 kts 153°
2026-04-24 20:16 -26.87245 -53.56101 31764 ft 496 kts 153°
2026-04-24 20:16 -26.90127 -53.53968 32052 ft 498 kts 153°
2026-04-24 20:16 -26.93022 -53.51823 32452 ft 498 kts 153°
2026-04-24 20:16 -26.95909 -53.49680 32914 ft 496 kts 153°
2026-04-24 20:17 -26.98809 -53.47527 33319 ft 496 kts 153°
2026-04-24 20:17 -27.04539 -53.43288 34135 ft 495 kts 153°
2026-04-24 20:17 -27.07423 -53.41164 34504 ft 495 kts 153°
2026-04-24 20:18 -27.11600 -53.38068 35125 ft 492 kts 153°
2026-04-24 20:18 -27.26735 -53.26489 36901 ft 491 kts 153°
2026-04-24 20:18 -27.38136 -53.18075 37225 ft 503 kts 155°
2026-04-24 20:18 -27.49936 -53.09395 37103 ft 503 kts 154°
2026-04-24 20:19 -27.61493 -53.00807 37001 ft 492 kts 154°
2026-04-24 20:19 -27.72689 -52.92267 36983 ft 476 kts 154°
2026-04-24 20:19 -27.94557 -52.75755 37093 ft 473 kts 155°
2026-04-24 20:20 -28.16718 -52.58898 37107 ft 488 kts 155°
2026-04-24 20:20 -28.39429 -52.41519 37052 ft 492 kts 155°
2026-04-24 20:21 -28.50665 -52.32913 36977 ft 473 kts 155°
2026-04-24 20:21 -28.57420 -52.27724 36879 ft 439 kts 156°
2026-04-24 20:21 -28.59910 -52.25819 36943 ft 423 kts 157°
2026-04-24 20:21 -28.62317 -52.23973 36972 ft 410 kts 157°
2026-04-24 20:22 -28.64643 -52.22187 36987 ft 397 kts 158°
2026-04-24 20:22 -28.66906 -52.20443 37023 ft 392 kts 158°
2026-04-24 20:22 -28.71529 -52.16909 37085 ft 410 kts 158°
2026-04-24 20:23 -28.76343 -52.13197 37084 ft 421 kts 157°
2026-04-24 20:23 -28.81178 -52.09445 37059 ft 416 kts 157°
2026-04-24 20:24 -28.85821 -52.05530 37074 ft 417 kts 153°
2026-04-24 20:24 -28.90336 -52.01345 36912 ft 412 kts 152°
2026-04-24 20:25 -28.92512 -51.99308 36458 ft 409 kts 152°
2026-04-24 20:25 -28.94728 -51.97250 35906 ft 408 kts 153°
2026-04-24 20:25 -28.96940 -51.95209 35285 ft 409 kts 153°
2026-04-24 20:25 -28.99175 -51.93158 34634 ft 412 kts 152°
2026-04-24 20:26 -29.01406 -51.91109 34152 ft 410 kts 152°
2026-04-24 20:26 -29.03599 -51.89093 33687 ft 407 kts 152°
2026-04-24 20:26 -29.05803 -51.87065 33242 ft 403 kts 152°
2026-04-24 20:26 -29.07982 -51.85060 32786 ft 399 kts 152°
2026-04-24 20:27 -29.10140 -51.83074 32314 ft 395 kts 152°
2026-04-24 20:27 -29.12251 -51.81133 31846 ft 393 kts 152°
2026-04-24 20:27 -29.14386 -51.79170 31336 ft 391 kts 152°
2026-04-24 20:27 -29.16499 -51.77225 30917 ft 387 kts 151°
2026-04-24 20:28 -29.18584 -51.75301 30498 ft 383 kts 151°
2026-04-24 20:28 -29.20635 -51.73412 30060 ft 380 kts 150°
2026-04-24 20:28 -29.22690 -51.71517 29569 ft 378 kts 150°
2026-04-24 20:28 -29.24721 -51.69642 29085 ft 373 kts 150°
2026-04-24 20:29 -29.26056 -51.68410 28716 ft 371 kts 150°
2026-04-24 20:29 -29.28737 -51.65935 28026 ft 368 kts 149°
2026-04-24 20:29 -29.30728 -51.64096 27541 ft 365 kts 149°
2026-04-24 20:29 -29.32698 -51.62274 27072 ft 362 kts 148°
2026-04-24 20:30 -29.34627 -51.60489 26564 ft 359 kts 148°
2026-04-24 20:30 -29.36559 -51.58701 26121 ft 354 kts 148°
2026-04-24 20:30 -29.38471 -51.56930 25653 ft 351 kts 147°
2026-04-24 20:30 -29.40367 -51.55175 25157 ft 349 kts 147°
2026-04-24 20:31 -29.42253 -51.53427 24700 ft 346 kts 147°
2026-04-24 20:31 -29.44115 -51.51699 24258 ft 342 kts 146°
2026-04-24 20:31 -29.45957 -51.49991 23794 ft 339 kts 146°
2026-04-24 20:31 -29.47788 -51.48291 23337 ft 336 kts 145°
2026-04-24 20:32 -29.49570 -51.46635 22906 ft 332 kts 146°
2026-04-24 20:32 -29.51362 -51.44970 22454 ft 329 kts 146°
2026-04-24 20:32 -29.53130 -51.43327 22019 ft 325 kts 146°
2026-04-24 20:32 -29.54883 -51.41697 21578 ft 322 kts 146°
2026-04-24 20:33 -29.56612 -51.40088 21144 ft 318 kts 146°
2026-04-24 20:33 -29.58326 -51.38492 20696 ft 315 kts 146°
2026-04-24 20:33 -29.60023 -51.36912 20271 ft 312 kts 146°
2026-04-24 20:33 -29.61833 -51.35645 19788 ft 298 kts 169°
2026-04-24 20:34 -29.63817 -51.35316 19358 ft 281 kts 190°
2026-04-24 20:34 -29.65657 -51.35725 18931 ft 268 kts 204°
2026-04-24 20:34 -29.67428 -51.36383 18473 ft 266 kts 205°
2026-04-24 20:34 -29.69179 -51.37053 18000 ft 264 kts 205°
2026-04-24 20:35 -29.70915 -51.37709 17571 ft 262 kts 205°
2026-04-24 20:35 -29.72677 -51.38263 17076 ft 264 kts 197°
2026-04-24 20:35 -29.74502 -51.38602 16633 ft 263 kts 194°
2026-04-24 20:35 -29.76342 -51.38899 15778 ft 270 kts 194°
2026-04-24 20:36 -29.78215 -51.39204 14960 ft 273 kts 194°
2026-04-24 20:36 -29.80079 -51.39515 14124 ft 273 kts 193°
2026-04-24 20:36 -29.81949 -51.39835 13151 ft 269 kts 194°
2026-04-24 20:36 -29.83776 -51.40154 12171 ft 262 kts 193°
2026-04-24 20:37 -29.85560 -51.40470 11192 ft 257 kts 193°
2026-04-24 20:37 -29.87318 -51.40783 10222 ft 254 kts 193°
2026-04-24 20:37 -29.89064 -51.41074 9243 ft 253 kts 188°
2026-04-24 20:37 -29.90819 -51.40755 8202 ft 259 kts 163°
2026-04-24 20:38 -29.92525 -51.40072 7047 ft 261 kts 162°
2026-04-24 20:38 -29.94254 -51.39378 5789 ft 264 kts 161°
2026-04-24 20:38 -29.95989 -51.38690 4525 ft 262 kts 161°
2026-04-24 20:38 -29.97698 -51.38011 3269 ft 256 kts 156°
2026-04-24 20:39 -29.99012 -51.36816 2403 ft 231 kts 117°
2026-04-24 20:39 -29.99280 -51.35194 2197 ft 190 kts 83°
2026-04-24 20:39 -29.99173 -51.33773 2081 ft 163 kts 89°
2026-04-24 20:39 -29.99175 -51.32602 2029 ft 133 kts 90°
2026-04-24 20:40 -29.99189 -51.31604 1983 ft 118 kts 91°
2026-04-24 20:40 -29.99206 -51.30670 1985 ft 118 kts 91°
2026-04-24 20:40 -29.99222 -51.29707 1928 ft 121 kts 91°
2026-04-24 20:40 -29.99241 -51.28737 1779 ft 120 kts 91°
2026-04-24 20:41 -29.99259 -51.27781 1630 ft 119 kts 91°
2026-04-24 20:41 -29.99276 -51.26823 1467 ft 120 kts 91°
2026-04-24 20:41 -29.99294 -51.25863 1316 ft 120 kts 92°
2026-04-24 20:41 -29.99312 -51.24900 1160 ft 120 kts 92°
2026-04-24 20:42 -29.99331 -51.23950 1000 ft 119 kts 92°
2026-04-24 20:42 -29.99349 -51.22993 844 ft 119 kts 92°
2026-04-24 20:42 -29.99366 -51.22036 682 ft 120 kts 91°
2026-04-24 20:42 -29.99380 -51.21052 498 ft 124 kts 92°
2026-04-24 20:43 -29.99399 -51.20049 338 ft 125 kts 92°
2026-04-24 20:43 -29.99421 -51.19053 155 ft 124 kts 92°
2026-04-24 20:43 -29.99441 -51.18079 29 ft 117 kts 92°
2026-04-24 20:43 -29.99453 -51.17514 26 ft 88 kts 91°
2026-04-24 20:44 -29.99466 -51.16880 28 ft 27 kts 91°
2026-04-24 20:44 -29.99428 -51.16752 31 ft 14 kts 24°
2026-04-24 20:44 -29.99362 -51.16742 31 ft 14 kts 359°
2026-04-24 20:44 -29.99286 -51.16787 31 ft 13 kts 294°
2026-04-24 20:45 -29.99278 -51.16891 30 ft 13 kts 271°
2026-04-24 20:45 -29.99275 -51.16992 30 ft 12 kts 272°
2026-04-24 20:45 -29.99272 -51.17091 29 ft 12 kts 272°
2026-04-24 20:45 -29.99269 -51.17187 28 ft 12 kts 271°
2026-04-24 20:46 -29.99267 -51.17281 27 ft 12 kts 271°
2026-04-24 20:46 -29.99256 -51.17371 27 ft 11 kts 302°
2026-04-24 20:46 -29.99186 -51.17393 27 ft 11 kts
2026-04-24 20:46 -29.99124 -51.17394 27 ft 4 kts
2026-04-24 20:47 -29.99113 -51.17394 26 ft 0 kts